Back to catalog

STARLINK-37989

AliveCommunicationsSSO
NORAD 69718·PAYLOAD·🇺🇸 United States

Launched Jun 28, 2026 from Vandenberg Space Force Base

Loading…

Next Passes (next 24 hours)

TLE

FreshSource: CelesTrak SupGP

Epoch: Sep 15, 2026, 04:41 UTC

1 69718C 26147Q   26258.19562500 -.00086907  00000+0 -27005-2 0  2587
2 69718  97.2835 294.6461 0000798  82.4739 213.7098 15.33451751    12

Track STARLINK-37989 in real time with AllMySat

Download on the App Store